Time,TemperatureF,DewpointF,PressureIn,WindDirection,WindDirectionDegrees,WindSpeedMPH,WindSpeedGustMPH,Humidity,HourlyPrecipIn,Conditions,Clouds,dailyrainin,SolarRadiationWatts/m^2,SoftwareType,DateUTC
2013-01-03 00:02:00,68.0,61.0,-100.00,NW,320,2.0,6.0,79,0.00,,,0.00,0.000000,,2013-01-03 10:02:00,
2013-01-03 00:12:00,68.0,61.0,-100.00,NW,320,2.0,6.0,79,0.00,,,0.00,0.000000,,2013-01-03 10:12:00,
2013-01-03 00:22:00,68.0,61.0,-100.00,NW,320,2.0,6.0,79,0.00,,,0.00,0.000000,,2013-01-03 10:22:00,
2013-01-03 00:32:00,68.0,61.0,-100.00,NW,320,2.0,6.0,79,0.00,,,0.00,0.000000,,2013-01-03 10:32:00,
2013-01-03 00:53:00,69.0,63.0,-100.00,North,11,1.0,6.0,82,0.00,,,0.00,0.000000,,2013-01-03 10:53:00,
2013-01-03 01:02:00,69.0,63.0,-100.00,North,11,1.0,6.0,82,0.00,,,0.00,0.000000,,2013-01-03 11:02:00,
2013-01-03 01:12:00,69.0,63.0,-100.00,North,11,1.0,6.0,82,0.00,,,0.00,0.000000,,2013-01-03 11:12:00,
2013-01-03 01:22:00,69.0,63.0,-100.00,North,11,1.0,6.0,82,0.00,,,0.00,0.000000,,2013-01-03 11:22:00,
2013-01-03 01:32:00,69.0,63.0,-100.00,North,11,1.0,6.0,82,0.00,,,0.00,0.000000,,2013-01-03 11:32:00,
2013-01-03 01:53:00,69.0,63.0,-100.00,North,2,1.0,5.0,82,0.00,,,0.00,0.000000,,2013-01-03 11:53:00,
2013-01-03 02:02:00,69.0,63.0,-100.00,North,2,1.0,5.0,82,0.00,,,0.00,0.000000,,2013-01-03 12:02:00,
2013-01-03 02:12:00,69.0,63.0,-100.00,North,2,1.0,5.0,82,0.00,,,0.00,0.000000,,2013-01-03 12:12:00,
2013-01-03 02:22:00,69.0,63.0,-100.00,North,2,1.0,5.0,82,0.00,,,0.00,0.000000,,2013-01-03 12:22:00,
2013-01-03 02:32:00,69.0,63.0,-100.00,North,2,1.0,5.0,82,0.00,,,0.00,0.000000,,2013-01-03 12:32:00,
2013-01-03 02:53:00,68.0,63.0,-100.00,NW,325,3.0,6.0,84,0.00,,,-99.99,0.000000,,2013-01-03 12:53:00,
2013-01-03 03:02:00,68.0,63.0,-100.00,NW,325,3.0,6.0,84,0.00,,,-99.99,0.000000,,2013-01-03 13:02:00,
2013-01-03 03:12:00,68.0,63.0,-100.00,NW,325,3.0,6.0,84,0.00,,,-99.99,0.000000,,2013-01-03 13:12:00,
2013-01-03 03:22:00,68.0,63.0,-100.00,NW,325,3.0,6.0,84,0.00,,,-99.99,0.000000,,2013-01-03 13:22:00,
2013-01-03 03:32:00,68.0,63.0,-100.00,NW,325,3.0,6.0,84,0.00,,,-99.99,0.000000,,2013-01-03 13:32:00,
2013-01-03 03:53:00,68.0,63.0,-100.00,NNW,329,2.0,7.0,85,0.00,,,0.00,0.000000,,2013-01-03 13:53:00,
2013-01-03 04:02:00,68.0,63.0,-100.00,NNW,329,2.0,7.0,85,0.00,,,0.00,0.000000,,2013-01-03 14:02:00,
2013-01-03 04:12:00,68.0,63.0,-100.00,NNW,329,2.0,7.0,85,0.00,,,0.00,0.000000,,2013-01-03 14:12:00,
2013-01-03 04:22:00,68.0,63.0,-100.00,NNW,329,2.0,7.0,85,0.00,,,0.00,0.000000,,2013-01-03 14:22:00,
2013-01-03 04:32:00,68.0,63.0,-100.00,NNW,329,2.0,7.0,85,0.00,,,0.00,0.000000,,2013-01-03 14:32:00,
2013-01-03 05:02:00,67.0,62.0,-100.00,NE,56,1.0,5.0,83,0.00,,,0.00,0.000000,,2013-01-03 15:02:00,
2013-01-03 05:12:00,67.0,62.0,-100.00,NE,56,1.0,5.0,83,0.00,,,0.00,0.000000,,2013-01-03 15:12:00,
2013-01-03 05:22:00,67.0,62.0,-100.00,NE,56,1.0,5.0,83,0.00,,,0.00,0.000000,,2013-01-03 15:22:00,
2013-01-03 05:33:00,67.0,62.0,-100.00,NE,56,1.0,5.0,83,0.00,,,0.00,0.000000,,2013-01-03 15:33:00,
2013-01-03 06:03:00,68.0,63.0,-100.00,North,350,1.0,3.0,85,0.00,,,0.00,0.000000,,2013-01-03 16:03:00,
2013-01-03 06:12:00,68.0,63.0,-100.00,North,350,1.0,3.0,85,0.00,,,0.00,0.000000,,2013-01-03 16:12:00,
2013-01-03 06:22:00,68.0,63.0,-100.00,North,350,1.0,3.0,85,0.00,,,0.00,0.000000,,2013-01-03 16:22:00,
2013-01-03 06:32:00,68.0,63.0,-100.00,North,350,1.0,3.0,85,0.00,,,0.00,0.000000,,2013-01-03 16:32:00,
2013-01-03 07:03:00,68.0,63.0,-100.00,NW,321,2.0,4.0,85,0.00,,,-99.99,0.000000,,2013-01-03 17:03:00,
2013-01-03 07:12:00,68.0,63.0,-100.00,NW,321,2.0,4.0,85,0.00,,,-99.99,0.000000,,2013-01-03 17:12:00,
2013-01-03 07:22:00,68.0,63.0,-100.00,NW,321,2.0,4.0,85,0.00,,,-99.99,0.000000,,2013-01-03 17:22:00,
2013-01-03 07:32:00,68.0,63.0,-100.00,NW,321,2.0,4.0,85,0.00,,,-99.99,0.000000,,2013-01-03 17:32:00,
2013-01-03 07:53:00,68.0,63.0,-100.00,NE,43,0.0,4.0,84,0.00,,,0.00,3.000000,,2013-01-03 17:53:00,
2013-01-03 08:03:00,68.0,63.0,-100.00,NE,43,0.0,4.0,84,0.00,,,0.00,3.000000,,2013-01-03 18:03:00,
2013-01-03 08:12:00,68.0,63.0,-100.00,NE,43,0.0,4.0,84,0.00,,,0.00,3.000000,,2013-01-03 18:12:00,
2013-01-03 08:22:00,68.0,63.0,-100.00,NE,43,0.0,4.0,84,0.00,,,0.00,3.000000,,2013-01-03 18:22:00,
2013-01-03 08:33:00,68.0,63.0,-100.00,NE,43,0.0,4.0,84,0.00,,,0.00,3.000000,,2013-01-03 18:33:00,
2013-01-03 09:03:00,73.0,68.0,-100.00,WNW,290,3.0,6.0,83,0.00,,,0.00,163.000000,,2013-01-03 19:03:00,
2013-01-03 09:12:00,73.0,68.0,-100.00,WNW,290,3.0,6.0,83,0.00,,,0.00,163.000000,,2013-01-03 19:12:00,
2013-01-03 10:02:00,76.0,67.0,-100.00,SW,236,4.0,7.0,74,0.00,,,0.00,402.000000,,2013-01-03 20:02:00,
2013-01-03 10:12:00,76.0,67.0,-100.00,SW,236,4.0,7.0,74,0.00,,,0.00,402.000000,,2013-01-03 20:12:00,
2013-01-03 10:22:00,76.0,67.0,-100.00,SW,236,4.0,7.0,74,0.00,,,0.00,402.000000,,2013-01-03 20:22:00,
2013-01-03 10:33:00,76.0,67.0,-100.00,SW,236,4.0,7.0,74,0.00,,,0.00,402.000000,,2013-01-03 20:33:00,
2013-01-03 11:02:00,78.0,67.0,-100.00,SW,229,7.0,11.0,70,0.00,,,0.00,610.000000,,2013-01-03 21:02:00,
2013-01-03 11:12:00,78.0,67.0,-100.00,SW,229,7.0,11.0,70,0.00,,,0.00,610.000000,,2013-01-03 21:12:00,
2013-01-03 11:22:00,78.0,67.0,-100.00,SW,229,7.0,11.0,70,0.00,,,0.00,610.000000,,2013-01-03 21:22:00,
2013-01-03 11:34:00,78.0,67.0,-100.00,SW,229,7.0,11.0,70,0.00,,,0.00,610.000000,,2013-01-03 21:34:00,
2013-01-03 12:02:00,80.0,68.0,-100.00,SW,236,8.0,12.0,66,0.00,,,0.00,767.000000,,2013-01-03 22:02:00,
2013-01-03 12:12:00,80.0,68.0,-100.00,SW,236,8.0,12.0,66,0.00,,,0.00,767.000000,,2013-01-03 22:12:00,
2013-01-03 12:22:00,80.0,68.0,-100.00,SW,236,8.0,12.0,66,0.00,,,0.00,767.000000,,2013-01-03 22:22:00,
2013-01-03 12:32:00,80.0,68.0,-100.00,SW,236,8.0,12.0,66,0.00,,,0.00,767.000000,,2013-01-03 22:32:00,
2013-01-03 12:52:00,80.0,65.0,-100.00,SW,231,10.0,14.0,61,0.00,,,0.00,872.000000,,2013-01-03 22:52:00,
2013-01-03 13:02:00,80.0,65.0,-100.00,SW,231,10.0,14.0,61,0.00,,,0.00,872.000000,,2013-01-03 23:02:00,
2013-01-03 13:12:00,80.0,65.0,-100.00,SW,231,10.0,14.0,61,0.00,,,0.00,872.000000,,2013-01-03 23:12:00,
2013-01-03 13:22:00,80.0,65.0,-100.00,SW,231,10.0,14.0,61,0.00,,,0.00,872.000000,,2013-01-03 23:22:00,
2013-01-03 13:32:00,80.0,65.0,-100.00,SW,231,10.0,14.0,61,0.00,,,0.00,872.000000,,2013-01-03 23:32:00,
2013-01-03 13:53:00,81.0,64.0,-100.00,SSW,211,8.0,16.0,57,0.00,,,0.00,810.000000,,2013-01-03 23:53:00,
2013-01-03 14:03:00,81.0,64.0,-100.00,SSW,211,8.0,16.0,57,0.00,,,0.00,810.000000,,2013-01-04 00:03:00,
2013-01-03 14:12:00,81.0,64.0,-100.00,SSW,211,8.0,16.0,57,0.00,,,0.00,810.000000,,2013-01-04 00:12:00,
2013-01-03 14:22:00,81.0,64.0,-100.00,SSW,211,8.0,16.0,57,0.00,,,0.00,810.000000,,2013-01-04 00:22:00,
2013-01-03 14:32:00,81.0,64.0,-100.00,SSW,211,8.0,16.0,57,0.00,,,0.00,810.000000,,2013-01-04 00:32:00,
2013-01-03 15:02:00,80.0,64.0,-100.00,SW,216,8.0,13.0,58,0.00,,,0.00,745.000000,,2013-01-04 01:02:00,
2013-01-03 15:12:00,80.0,64.0,-100.00,SW,216,8.0,13.0,58,0.00,,,0.00,745.000000,,2013-01-04 01:12:00,
2013-01-03 15:22:00,80.0,64.0,-100.00,SW,216,8.0,13.0,58,0.00,,,0.00,745.000000,,2013-01-04 01:22:00,
2013-01-03 15:32:00,80.0,64.0,-100.00,SW,216,8.0,13.0,58,0.00,,,0.00,745.000000,,2013-01-04 01:32:00,
2013-01-03 15:52:00,80.0,64.0,-100.00,SW,216,7.0,11.0,58,0.00,,,0.00,664.000000,,2013-01-04 01:52:00,
2013-01-03 16:02:00,80.0,64.0,-100.00,SW,216,7.0,11.0,58,0.00,,,0.00,664.000000,,2013-01-04 02:02:00,
2013-01-03 16:12:00,80.0,64.0,-100.00,SW,216,7.0,11.0,58,0.00,,,0.00,664.000000,,2013-01-04 02:12:00,
2013-01-03 16:22:00,80.0,64.0,-100.00,SW,216,7.0,11.0,58,0.00,,,0.00,664.000000,,2013-01-04 02:22:00,
2013-01-03 16:32:00,80.0,64.0,-100.00,SW,216,7.0,11.0,58,0.00,,,0.00,664.000000,,2013-01-04 02:32:00,
2013-01-03 16:53:00,79.0,62.0,-100.00,WSW,239,7.0,11.0,57,0.00,,,0.00,414.000000,,2013-01-04 02:53:00,
2013-01-03 17:02:00,79.0,62.0,-100.00,WSW,239,7.0,11.0,57,0.00,,,0.00,414.000000,,2013-01-04 03:02:00,
2013-01-03 17:12:00,79.0,62.0,-100.00,WSW,239,7.0,11.0,57,0.00,,,0.00,414.000000,,2013-01-04 03:12:00,
2013-01-03 17:22:00,79.0,62.0,-100.00,WSW,239,7.0,11.0,57,0.00,,,0.00,414.000000,,2013-01-04 03:22:00,
2013-01-03 17:32:00,79.0,62.0,-100.00,WSW,239,7.0,11.0,57,0.00,,,0.00,414.000000,,2013-01-04 03:32:00,
2013-01-03 17:53:00,77.0,63.0,-100.00,WSW,237,6.0,12.0,61,0.00,,,0.00,235.000000,,2013-01-04 03:53:00,
2013-01-03 18:02:00,77.0,63.0,-100.00,WSW,237,6.0,12.0,61,0.00,,,0.00,235.000000,,2013-01-04 04:02:00,
2013-01-03 18:12:00,77.0,63.0,-100.00,WSW,237,6.0,12.0,61,0.00,,,0.00,235.000000,,2013-01-04 04:12:00,
2013-01-03 18:22:00,77.0,63.0,-100.00,WSW,237,6.0,12.0,61,0.00,,,0.00,235.000000,,2013-01-04 04:22:00,
2013-01-03 18:32:00,77.0,63.0,-100.00,WSW,237,6.0,12.0,61,0.00,,,0.00,235.000000,,2013-01-04 04:32:00,
2013-01-03 18:52:00,72.0,61.0,-100.00,WSW,251,3.0,9.0,69,0.00,,,0.00,21.000000,,2013-01-04 04:52:00,
2013-01-03 19:03:00,72.0,61.0,-100.00,WSW,251,3.0,9.0,69,0.00,,,0.00,21.000000,,2013-01-04 05:03:00,
2013-01-03 19:12:00,72.0,61.0,-100.00,WSW,251,3.0,9.0,69,0.00,,,0.00,21.000000,,2013-01-04 05:12:00,
2013-01-03 19:22:00,72.0,61.0,-100.00,WSW,251,3.0,9.0,69,0.00,,,0.00,21.000000,,2013-01-04 05:22:00,
2013-01-03 19:33:00,72.0,61.0,-100.00,WSW,251,3.0,9.0,69,0.00,,,0.00,21.000000,,2013-01-04 05:33:00,
2013-01-03 19:53:00,70.0,61.0,-100.00,NW,305,2.0,7.0,72,0.00,,,0.00,0.000000,,2013-01-04 05:53:00,
2013-01-03 20:02:00,70.0,61.0,-100.00,NW,305,2.0,7.0,72,0.00,,,0.00,0.000000,,2013-01-04 06:02:00,
2013-01-03 20:12:00,70.0,61.0,-100.00,NW,305,2.0,7.0,72,0.00,,,0.00,0.000000,,2013-01-04 06:12:00,
2013-01-03 20:22:00,70.0,61.0,-100.00,NW,305,2.0,7.0,72,0.00,,,0.00,0.000000,,2013-01-04 06:22:00,
2013-01-03 20:32:00,70.0,61.0,-100.00,NW,305,2.0,7.0,72,0.00,,,0.00,0.000000,,2013-01-04 06:32:00,
2013-01-03 21:02:00,70.0,62.0,-100.00,WNW,296,4.0,5.0,75,0.00,,,0.00,0.000000,,2013-01-04 07:02:00,
2013-01-03 21:12:00,70.0,62.0,-100.00,WNW,296,4.0,5.0,75,0.00,,,0.00,0.000000,,2013-01-04 07:12:00,
2013-01-03 21:22:00,70.0,62.0,-100.00,WNW,296,4.0,5.0,75,0.00,,,0.00,0.000000,,2013-01-04 07:22:00,
2013-01-03 21:32:00,70.0,62.0,-100.00,WNW,296,4.0,5.0,75,0.00,,,0.00,0.000000,,2013-01-04 07:32:00,
2013-01-03 21:52:00,68.0,61.0,-100.00,North,350,2.0,7.0,78,0.00,,,0.00,0.000000,,2013-01-04 07:52:00,
2013-01-03 22:02:00,68.0,61.0,-100.00,North,350,2.0,7.0,78,0.00,,,0.00,0.000000,,2013-01-04 08:02:00,
2013-01-03 22:12:00,68.0,61.0,-100.00,North,350,2.0,7.0,78,0.00,,,0.00,0.000000,,2013-01-04 08:12:00,
2013-01-03 22:22:00,68.0,61.0,-100.00,North,350,2.0,7.0,78,0.00,,,0.00,0.000000,,2013-01-04 08:22:00,
2013-01-03 22:32:00,68.0,61.0,-100.00,North,350,2.0,7.0,78,0.00,,,0.00,0.000000,,2013-01-04 08:32:00,
2013-01-03 22:53:00,69.0,60.0,-100.00,North,3,3.0,10.0,73,0.00,,,0.00,0.000000,,2013-01-04 08:53:00,
2013-01-03 23:02:00,69.0,60.0,-100.00,North,3,3.0,10.0,73,0.00,,,0.00,0.000000,,2013-01-04 09:02:00,